| time (UTC) | temp F | wind direction | speed knots | gust knots | rain 1hr in | rain 24hr in | rain mn in | humidity % | barometer mb |
| 20260507181724 | 57 | 9 | 0.0 | 0.0 | 0.00 | 0.07 | 0.07 | 68 | 1014.4 |
| 20260507181222 | 57 | 9 | 0.0 | 0.0 | 0.00 | 0.07 | 0.07 | 67 | 1014.4 |
| 20260507180723 | 58 | 9 | 0.0 | 0.0 | 0.00 | 0.07 | 0.07 | 68 | 1014.3 |
| 20260507180229 | 58 | 9 | 0.0 | 0.0 | 0.00 | 0.07 | 0.07 | 68 | 1014.3 |
| 20260507175723 | 58 | 9 | 0.0 | 0.0 | 0.00 | 0.07 | 0.07 | 68 | 1014.3 |
| 20260507175226 | 58 | 9 | 0.0 | 0.0 | 0.00 | 0.07 | 0.07 | 66 | 1014.3 |
| 20260507174724 | 59 | 9 | 0.0 | 0.0 | 0.00 | 0.07 | 0.07 | 64 | 1014.2 |
| 20260507174227 | 60 | 9 | 0.0 | 0.0 | 0.00 | 0.07 | 0.07 | 62 | 1014.2 |
| 20260507173725 | 60 | 9 | 0.0 | 0.0 | 0.00 | 0.07 | 0.07 | 61 | 1014.2 |
| 20260507173228 | 61 | 9 | 0.0 | 0.0 | 0.00 | 0.07 | 0.07 | 60 | 1014.1 |
| 20260507172726 | 61 | 9 | 0.0 | 0.0 | 0.00 | 0.07 | 0.07 | 60 | 1014.1 |
| 20260507172227 | 60 | 9 | 0.0 | 0.0 | 0.00 | 0.07 | 0.07 | 60 | 1014.1 |
| 20260507171712 | 60 | 9 | 0.0 | 5.2 | 0.00 | 0.07 | 0.07 | 59 | 1014.1 |
| 20260507171215 | 61 | 9 | 2.6 | 5.2 | 0.00 | 0.07 | 0.07 | 59 | 1014.0 |
| 20260507170717 | 62 | 11 | 0.0 | 0.0 | 0.00 | 0.07 | 0.07 | 58 | 1013.9 |
| 20260507170221 | 61 | 11 | 0.0 | 0.0 | 0.00 | 0.07 | 0.07 | 59 | 1013.9 |
| 20260507165721 | 61 | 11 | 0.0 | 0.0 | 0.00 | 0.07 | 0.07 | 59 | 1014.0 |
| 20260507165216 | 61 | 11 | 0.0 | 0.0 | 0.00 | 0.07 | 0.07 | 57 | 1014.0 |
| 20260507164733 | 62 | 11 | 0.0 | 0.0 | 0.00 | 0.07 | 0.07 | 56 | 1014.0 |
| 20260507164233 | 62 | 11 | 0.0 | 5.2 | 0.00 | 0.07 | 0.07 | 56 | 1014.0 |
| 20260507163731 | 63 | 9 | 2.6 | 5.2 | 0.00 | 0.07 | 0.07 | 55 | 1014.0 |
| 20260507163229 | 62 | 9 | 0.0 | 4.3 | 0.00 | 0.07 | 0.07 | 57 | 1014.0 |
| 20260507162733 | 62 | 9 | 2.6 | 4.3 | 0.00 | 0.07 | 0.07 | 56 | 1013.9 |
| 20260507162228 | 62 | 360 | 0.0 | 0.0 | 0.00 | 0.07 | 0.07 | 58 | 1013.8 |
| 20260507161724 | 62 | 360 | 0.0 | 2.6 | 0.00 | 0.07 | 0.07 | 57 | 1013.9 |
| 20260507161227 | 62 | 17 | 1.7 | 2.6 | 0.00 | 0.07 | 0.07 | 55 | 1013.9 |
| 20260507160728 | 63 | 19 | 0.0 | 0.0 | 0.00 | 0.07 | 0.07 | 56 | 1013.9 |
| 20260507160233 | 63 | 20 | 0.0 | 0.0 | 0.00 | 0.07 | 0.07 | 56 | 1013.9 |
| 20260507155727 | 62 | 19 | 0.0 | 0.0 | 0.00 | 0.07 | 0.07 | 59 | 1013.9 |
| 20260507155216 | 61 | 19 | 0.0 | 0.0 | 0.00 | 0.07 | 0.07 | 58 | 1014.0 |
| 20260507154716 | 62 | 19 | 0.0 | 0.0 | 0.00 | 0.07 | 0.07 | 57 | 1014.0 |
| 20260507154219 | 62 | 24 | 0.0 | 3.5 | 0.00 | 0.07 | 0.07 | 59 | 1014.0 |
| 20260507153723 | 62 | 24 | 1.7 | 3.5 | 0.00 | 0.07 | 0.07 | 57 | 1013.9 |
| 20260507153217 | 62 | 24 | 0.0 | 4.3 | 0.00 | 0.07 | 0.07 | 59 | 1013.9 |
| 20260507152720 | 62 | 29 | 2.6 | 4.3 | 0.00 | 0.07 | 0.07 | 58 | 1013.9 |
| 20260507152217 | 62 | 29 | 0.0 | 0.0 | 0.00 | 0.07 | 0.07 | 58 | 1013.9 |
| 20260507151716 | 62 | 29 | 0.0 | 0.0 | 0.00 | 0.07 | 0.07 | 59 | 1013.9 |
| 20260507151217 | 62 | 29 | 0.0 | 0.0 | 0.00 | 0.07 | 0.07 | 57 | 1014.0 |
| 20260507150714 | 62 | 28 | 0.0 | 0.0 | 0.00 | 0.07 | 0.07 | 56 | 1014.0 |
| 20260507150218 | 62 | 28 | 0.0 | 0.0 | 0.00 | 0.07 | 0.07 | 56 | 1014.1 |
| 20260507145719 | 62 | 28 | 0.0 | 0.0 | 0.00 | 0.07 | 0.07 | 57 | 1014.1 |
| 20260507145223 | 63 | 28 | 0.0 | 0.0 | 0.00 | 0.07 | 0.07 | 58 | 1014.1 |
| 20260507144726 | 62 | 23 | 0.0 | 0.0 | 0.00 | 0.07 | 0.07 | 58 | 1014.0 |
| 20260507144226 | 61 | 24 | 0.0 | 1.7 | 0.00 | 0.07 | 0.07 | 60 | 1014.0 |
| 20260507143723 | 62 | 24 | 0.9 | 1.7 | 0.00 | 0.07 | 0.07 | 60 | 1014.0 |
| 20260507143222 | 63 | 19 | 0.0 | 0.0 | 0.00 | 0.07 | 0.07 | 57 | 1014.0 |
| 20260507142721 | 63 | 19 | 0.0 | 0.0 | 0.00 | 0.07 | 0.07 | 59 | 1014.0 |
| 20260507142235 | 62 | 360 | 0.0 | 0.0 | 0.00 | 0.07 | 0.07 | 58 | 1014.0 |
| 20260507141729 | 62 | 360 | 0.0 | 0.0 | 0.00 | 0.07 | 0.07 | 58 | 1014.0 |
| 20260507141213 | 62 | 28 | 0.0 | 3.5 | 0.00 | 0.07 | 0.07 | 59 | 1014.0 |
| 20260507140716 | 61 | 28 | 1.7 | 3.5 | 0.00 | 0.07 | 0.07 | 61 | 1014.1 |
| 20260507140227 | 62 | 24 | 0.0 | 4.3 | 0.00 | 0.07 | 0.07 | 60 | 1014.1 |
| 20260507135716 | 61 | 38 | 2.6 | 4.3 | 0.00 | 0.07 | 0.07 | 63 | 1014.1 |
| 20260507135231 | 61 | 32 | 0.0 | 1.7 | 0.00 | 0.07 | 0.07 | 63 | 1014.2 |
| 20260507134728 | 61 | 33 | 0.9 | 1.7 | 0.00 | 0.07 | 0.07 | 62 | 1014.3 |
| 20260507134227 | 61 | 33 | 0.0 | 0.0 | 0.00 | 0.07 | 0.07 | 64 | 1014.3 |
| 20260507133731 | 60 | 33 | 0.0 | 0.0 | 0.00 | 0.07 | 0.07 | 65 | 1014.3 |
| 20260507133214 | 60 | 53 | 0.0 | 0.0 | 0.00 | 0.07 | 0.07 | 65 | 1014.4 |
| 20260507132719 | 61 | 27 | 0.0 | 0.0 | 0.00 | 0.07 | 0.07 | 67 | 1014.4 |
| 20260507132223 | 58 | 27 | 0.0 | 0.0 | 0.00 | 0.07 | 0.07 | 68 | 1014.5 |
| 20260507131720 | 58 | 26 | 0.0 | 0.0 | 0.00 | 0.07 | 0.07 | 74 | 1014.5 |
| 20260507131217 | 58 | 360 | 0.0 | 0.0 | 0.00 | 0.07 | 0.07 | 80 | 1014.6 |
| 20260507130717 | 56 | 360 | 0.0 | 0.0 | 0.00 | 0.11 | 0.07 | 79 | 1014.8 |
| 20260507130216 | 56 | 360 | 0.0 | 0.0 | 0.00 | 0.11 | 0.07 | 74 | 1014.6 |
| 20260507125716 | 57 | 360 | 0.0 | 5.2 | 0.00 | 0.11 | 0.07 | 72 | 1014.7 |
| 20260507125213 | 58 | 27 | 2.6 | 5.2 | 0.00 | 0.11 | 0.07 | 68 | 1014.6 |
| 20260507124716 | 60 | 31 | 0.9 | 1.7 | 0.00 | 0.11 | 0.07 | 66 | 1014.5 |
| 20260507124216 | 60 | 31 | 0.0 | 0.0 | 0.00 | 0.11 | 0.07 | 65 | 1014.6 |
| 20260507123735 | 61 | 33 | 0.0 | 1.7 | 0.00 | 0.11 | 0.07 | 65 | 1014.6 |
| 20260507123227 | 61 | 35 | 0.9 | 1.7 | 0.00 | 0.11 | 0.07 | 63 | 1014.6 |
| 20260507122725 | 59 | 38 | 0.0 | 0.0 | 0.00 | 0.11 | 0.07 | 70 | 1014.6 |
| 20260507122223 | 58 | 38 | 0.0 | 0.0 | 0.00 | 0.11 | 0.07 | 71 | 1014.6 |
| 20260507121721 | 58 | 39 | 0.0 | 8.7 | 0.00 | 0.11 | 0.07 | 70 | 1014.5 |
| 20260507121221 | 60 | 46 | 5.2 | 8.7 | 0.00 | 0.11 | 0.07 | 67 | 1014.5 |
| 20260507120714 | 61 | 74 | 0.0 | 0.0 | 0.00 | 0.15 | 0.07 | 70 | 1014.6 |
| 20260507120221 | 60 | 74 | 0.0 | 0.0 | 0.00 | 0.15 | 0.07 | 70 | 1014.6 |
| 20260507115734 | 59 | 72 | 0.0 | 0.0 | 0.00 | 0.15 | 0.07 | 71 | 1014.6 |
| 20260507115231 | 58 | 50 | 0.0 | 0.0 | 0.00 | 0.15 | 0.07 | 73 | 1014.6 |
| 20260507114725 | 57 | 49 | 0.0 | 0.0 | 0.00 | 0.15 | 0.07 | 72 | 1014.6 |
| 20260507114222 | 58 | 50 | 0.0 | 0.0 | 0.00 | 0.15 | 0.07 | 73 | 1014.7 |
| 20260507113722 | 57 | 41 | 0.0 | 0.0 | 0.00 | 0.15 | 0.07 | 76 | 1014.7 |
| 20260507113216 | 57 | 40 | 0.0 | 0.0 | 0.00 | 0.15 | 0.07 | 73 | 1014.7 |
| 20260507112730 | 57 | 38 | 0.0 | 5.2 | 0.00 | 0.15 | 0.07 | 73 | 1014.8 |
| 20260507112227 | 57 | 37 | 3.5 | 5.2 | 0.00 | 0.15 | 0.07 | 74 | 1014.8 |
| 20260507111728 | 58 | 55 | 0.9 | 0.9 | 0.00 | 0.15 | 0.07 | 73 | 1014.7 |
| 20260507111226 | 57 | 40 | 0.0 | 2.6 | 0.00 | 0.15 | 0.07 | 74 | 1014.7 |
| 20260507110721 | 57 | 46 | 1.7 | 6.1 | 0.00 | 0.15 | 0.07 | 71 | 1014.7 |
| 20260507110216 | 59 | 30 | 3.5 | 6.1 | 0.00 | 0.15 | 0.07 | 68 | 1014.7 |
| 20260507105730 | 60 | 59 | 0.0 | 0.0 | 0.00 | 0.15 | 0.07 | 67 | 1014.6 |
| 20260507105224 | 60 | 59 | 0.0 | 0.0 | 0.00 | 0.15 | 0.07 | 64 | 1014.7 |
| 20260507104724 | 60 | 69 | 0.0 | 0.0 | 0.00 | 0.15 | 0.07 | 65 | 1014.7 |
| 20260507104217 | 59 | 69 | 0.0 | 0.0 | 0.00 | 0.15 | 0.07 | 70 | 1014.8 |
| 20260507103734 | 59 | 69 | 0.0 | 0.0 | 0.00 | 0.15 | 0.07 | 70 | 1014.8 |
| 20260507103229 | 60 | 69 | 0.0 | 0.0 | 0.00 | 0.15 | 0.07 | 74 | 1014.8 |
| 20260507102727 | 58 | 69 | 0.0 | 0.0 | 0.00 | 0.15 | 0.07 | 73 | 1014.9 |
| 20260507102224 | 57 | 69 | 0.0 | 0.0 | 0.00 | 0.15 | 0.07 | 73 | 1014.9 |
| 20260507101726 | 57 | 69 | 0.0 | 0.0 | 0.00 | 0.15 | 0.07 | 74 | 1015.0 |
| 20260507101222 | 57 | 68 | 0.0 | 0.0 | 0.00 | 0.15 | 0.07 | 71 | 1014.9 |
| 20260507100733 | 57 | 68 | 0.0 | 0.0 | 0.00 | 0.17 | 0.07 | 74 | 1015.0 |
| 20260507100216 | 57 | 68 | 0.0 | 0.0 | 0.00 | 0.17 | 0.07 | 76 | 1015.0 |
| 20260507095732 | 57 | 68 | 0.0 | 0.0 | 0.00 | 0.17 | 0.07 | 74 | 1015.0 |
| 20260507095226 | 58 | 170 | 0.0 | 0.0 | 0.00 | 0.17 | 0.07 | 74 | 1015.0 |
| 20260507094727 | 57 | 170 | 0.0 | 0.0 | 0.00 | 0.17 | 0.07 | 79 | 1015.1 |
| 20260507094227 | 56 | 170 | 0.0 | 0.0 | 0.00 | 0.17 | 0.07 | 79 | 1015.1 |
| 20260507093721 | 56 | 170 | 0.0 | 0.0 | 0.00 | 0.17 | 0.07 | 79 | 1015.1 |
| 20260507093216 | 55 | 170 | 0.0 | 0.0 | 0.00 | 0.17 | 0.07 | 79 | 1015.2 |
| 20260507092714 | 55 | 170 | 0.0 | 0.0 | 0.00 | 0.17 | 0.07 | 80 | 1015.2 |
| 20260507092217 | 54 | 170 | 0.0 | 0.0 | 0.00 | 0.17 | 0.07 | 82 | 1015.1 |
| 20260507091721 | 55 | 170 | 0.0 | 0.0 | 0.00 | 0.17 | 0.07 | 84 | 1015.1 |
| 20260507091223 | 53 | 170 | 0.0 | 0.0 | 0.00 | 0.17 | 0.07 | 85 | 1015.1 |
| 20260507090721 | 52 | 170 | 0.0 | 0.0 | 0.00 | 0.17 | 0.07 | 85 | 1015.1 |
| 20260507090216 | 53 | 170 | 0.0 | 0.0 | 0.00 | 0.17 | 0.07 | 85 | 1015.1 |
| 20260507085729 | 52 | 170 | 0.0 | 0.0 | 0.00 | 0.17 | 0.07 | 85 | 1015.2 |
| 20260507085225 | 52 | 171 | 0.0 | 0.0 | 0.00 | 0.17 | 0.07 | 87 | 1015.1 |
| 20260507084717 | 52 | 171 | 0.0 | 0.0 | 0.00 | 0.17 | 0.07 | 87 | 1015.1 |
| 20260507084234 | 51 | 171 | 0.0 | 0.0 | 0.00 | 0.17 | 0.07 | 88 | 1015.0 |
| 20260507083728 | 51 | 171 | 0.0 | 0.0 | 0.00 | 0.17 | 0.07 | 88 | 1015.1 |
| 20260507083230 | 51 | 172 | 0.0 | 0.0 | 0.00 | 0.17 | 0.07 | 88 | 1015.0 |
| 20260507082728 | 51 | 171 | 0.0 | 0.0 | 0.00 | 0.17 | 0.07 | 88 | 1015.0 |
| 20260507082221 | 50 | 172 | 0.0 | 0.0 | 0.00 | 0.17 | 0.07 | 88 | 1015.0 |
| 20260507081721 | 51 | 171 | 0.0 | 0.0 | 0.00 | 0.17 | 0.07 | 87 | 1015.1 |
| 20260507081234 | 51 | 171 | 0.0 | 0.0 | 0.00 | 0.17 | 0.07 | 87 | 1015.1 |
| 20260507080728 | 50 | 171 | 0.0 | 0.0 | 0.00 | 0.17 | 0.07 | 87 | 1015.1 |
| 20260507080236 | 50 | 172 | 0.0 | 0.0 | 0.00 | 0.17 | 0.07 | 87 | 1015.1 |
| 20260507075731 | 50 | 171 | 0.0 | 0.0 | 0.00 | 0.17 | 0.07 | 87 | 1015.1 |
| 20260507075214 | 50 | 171 | 0.0 | 0.0 | 0.00 | 0.17 | 0.07 | 87 | 1015.0 |
| 20260507074713 | 50 | 171 | 0.0 | 0.0 | 0.00 | 0.17 | 0.07 | 87 | 1015.0 |
| 20260507074216 | 49 | 172 | 0.0 | 0.0 | 0.00 | 0.17 | 0.07 | 87 | 1015.0 |
| 20260507073727 | 49 | 171 | 0.0 | 0.0 | 0.01 | 0.17 | 0.07 | 87 | 1015.0 |
| 20260507073230 | 49 | 171 | 0.0 | 0.0 | 0.01 | 0.17 | 0.07 | 87 | 1014.9 |
| 20260507072728 | 48 | 171 | 0.0 | 0.0 | 0.01 | 0.17 | 0.07 | 87 | 1014.9 |
| 20260507072222 | 48 | 171 | 0.0 | 0.0 | 0.02 | 0.17 | 0.07 | 87 | 1014.9 |
| 20260507071716 | 48 | 171 | 0.0 | 0.0 | 0.02 | 0.17 | 0.07 | 87 | 1014.9 |
| 20260507071231 | 48 | 171 | 0.0 | 0.0 | 0.02 | 0.17 | 0.07 | 87 | 1014.9 |
| 20260507070729 | 48 | 171 | 0.0 | 0.0 | 0.02 | 0.17 | 0.07 | 87 | 1014.9 |
| 20260507070213 | 48 | 172 | 0.0 | 0.0 | 0.02 | 0.17 | 0.07 | 87 | 1014.9 |
| 20260507065712 | 48 | 171 | 0.0 | 0.0 | 0.02 | 0.17 | 0.07 | 88 | 1014.8 |
| 20260507065230 | 48 | 171 | 0.0 | 0.0 | 0.02 | 0.17 | 0.07 | 87 | 1014.7 |
| 20260507064729 | 48 | 172 | 0.0 | 0.0 | 0.02 | 0.17 | 0.07 | 87 | 1014.7 |
| 20260507064224 | 48 | 171 | 0.0 | 0.0 | 0.02 | 0.17 | 0.07 | 87 | 1014.7 |
| 20260507063723 | 48 | 171 | 0.0 | 0.0 | 0.01 | 0.16 | 0.06 | 87 | 1014.6 |
| 20260507063235 | 48 | 171 | 0.0 | 0.0 | 0.01 | 0.16 | 0.06 | 87 | 1014.7 |
| 20260507062728 | 47 | 171 | 0.0 | 0.0 | 0.01 | 0.16 | 0.06 | 88 | 1014.5 |
| 20260507062213 | 47 | 171 | 0.0 | 0.0 | 0.00 | 0.15 | 0.06 | 88 | 1014.5 |
| 20260507061716 | 47 | 171 | 0.0 | 0.0 | 0.00 | 0.15 | 0.06 | 88 | 1014.5 |
| 20260507061216 | 47 | 171 | 0.0 | 0.0 | 0.00 | 0.15 | 0.06 | 88 | 1014.5 |
| 20260507060733 | 47 | 171 | 0.0 | 0.0 | 0.00 | 0.15 | 0.06 | 88 | 1014.5 |
| 20260507060234 | 47 | 171 | 0.0 | 0.0 | 0.00 | 0.15 | 0.06 | 88 | 1014.4 |
| 20260507055726 | 47 | 171 | 0.0 | 0.0 | 0.00 | 0.15 | 0.06 | 88 | 1014.4 |
| 20260507055227 | 47 | 171 | 0.0 | 0.0 | 0.00 | 0.15 | 0.06 | 88 | 1014.3 |
| 20260507054725 | 47 | 171 | 0.0 | 0.0 | 0.00 | 0.15 | 0.06 | 88 | 1014.3 |
| 20260507054226 | 47 | 171 | 0.0 | 0.0 | 0.00 | 0.15 | 0.06 | 87 | 1014.2 |
| 20260507053721 | 47 | 171 | 0.0 | 0.0 | 0.00 | 0.15 | 0.06 | 88 | 1014.2 |
| 20260507053216 | 47 | 172 | 0.0 | 0.0 | 0.00 | 0.15 | 0.06 | 88 | 1014.1 |
| 20260507052714 | 47 | 171 | 0.0 | 0.0 | 0.00 | 0.15 | 0.06 | 88 | 1014.1 |
| 20260507052231 | 47 | 171 | 0.0 | 0.0 | 0.00 | 0.15 | 0.06 | 88 | 1014.0 |
| 20260507051724 | 47 | 171 | 0.0 | 0.0 | 0.00 | 0.15 | 0.06 | 88 | 1014.0 |
| 20260507051221 | 47 | 171 | 0.0 | 0.0 | 0.00 | 0.15 | 0.06 | 88 | 1013.9 |
| 20260507050722 | 46 | 171 | 0.0 | 0.0 | 0.01 | 0.15 | 0.06 | 88 | 1013.9 |
| 20260507050220 | 46 | 171 | 0.0 | 0.0 | 0.01 | 0.15 | 0.06 | 88 | 1013.9 |
| 20260507045714 | 46 | 172 | 0.0 | 0.0 | 0.01 | 0.15 | 0.06 | 88 | 1013.8 |
| 20260507045218 | 46 | 172 | 0.0 | 0.0 | 0.01 | 0.15 | 0.06 | 88 | 1013.8 |
| 20260507044716 | 46 | 171 | 0.0 | 0.0 | 0.01 | 0.15 | 0.06 | 88 | 1013.7 |
| 20260507044233 | 46 | 171 | 0.0 | 0.0 | 0.01 | 0.15 | 0.06 | 88 | 1013.7 |
| 20260507043726 | 46 | 172 | 0.0 | 0.0 | 0.01 | 0.15 | 0.06 | 88 | 1013.6 |
| 20260507043220 | 46 | 171 | 0.0 | 0.0 | 0.01 | 0.15 | 0.06 | 88 | 1013.6 |
| 20260507042734 | 46 | 171 | 0.0 | 0.0 | 0.01 | 0.15 | 0.06 | 88 | 1013.6 |
| 20260507042229 | 46 | 172 | 0.0 | 0.0 | 0.01 | 0.15 | 0.06 | 88 | 1013.5 |
| 20260507041732 | 46 | 171 | 0.0 | 0.0 | 0.01 | 0.15 | 0.06 | 88 | 1013.4 |
| 20260507041231 | 46 | 171 | 0.0 | 0.0 | 0.01 | 0.15 | 0.06 | 88 | 1013.4 |
| 20260507040729 | 46 | 171 | 0.0 | 0.0 | 0.01 | 0.15 | 0.06 | 88 | 1013.4 |
| 20260507040221 | 46 | 171 | 0.0 | 0.0 | 0.00 | 0.14 | 0.05 | 88 | 1013.4 |
| 20260507035732 | 46 | 171 | 0.0 | 0.0 | 0.00 | 0.14 | 0.05 | 88 | 1013.4 |
| 20260507035231 | 46 | 171 | 0.0 | 0.0 | 0.00 | 0.14 | 0.05 | 88 | 1013.4 |
| 20260507034725 | 46 | 171 | 0.0 | 0.0 | 0.00 | 0.14 | 0.05 | 88 | 1013.3 |
| 20260507034227 | 46 | 171 | 0.0 | 0.0 | 0.00 | 0.14 | 0.05 | 88 | 1013.4 |
| 20260507033731 | 46 | 172 | 0.0 | 0.0 | 0.00 | 0.14 | 0.05 | 88 | 1013.3 |
| 20260507033214 | 46 | 171 | 0.0 | 0.0 | 0.01 | 0.14 | 0.05 | 88 | 1013.3 |
| 20260507032718 | 46 | 171 | 0.0 | 0.0 | 0.01 | 0.14 | 0.05 | 88 | 1013.2 |
| 20260507032215 | 46 | 171 | 0.0 | 0.0 | 0.01 | 0.14 | 0.05 | 88 | 1013.2 |
| 20260507031731 | 46 | 171 | 0.0 | 0.0 | 0.02 | 0.14 | 0.05 | 88 | 1013.2 |
| 20260507031229 | 46 | 171 | 0.0 | 0.0 | 0.02 | 0.14 | 0.05 | 88 | 1013.1 |
| 20260507030725 | 46 | 171 | 0.0 | 0.0 | 0.02 | 0.14 | 0.05 | 88 | 1013.2 |
| 20260507030224 | 46 | 171 | 0.0 | 0.0 | 0.02 | 0.14 | 0.05 | 88 | 1013.2 |
| 20260507025722 | 46 | 171 | 0.0 | 0.0 | 0.02 | 0.14 | 0.05 | 88 | 1013.1 |
| 20260507025220 | 46 | 171 | 0.0 | 0.0 | 0.02 | 0.14 | 0.05 | 88 | 1013.1 |
| 20260507024717 | 46 | 171 | 0.0 | 0.0 | 0.03 | 0.14 | 0.05 | 88 | 1013.1 |
| 20260507024234 | 46 | 171 | 0.0 | 0.0 | 0.03 | 0.14 | 0.05 | 88 | 1013.1 |
| 20260507023712 | 46 | 171 | 0.0 | 0.0 | 0.03 | 0.14 | 0.05 | 88 | 1013.1 |
| 20260507023215 | 46 | 171 | 0.0 | 0.0 | 0.03 | 0.13 | 0.04 | 88 | 1013.1 |
| 20260507022732 | 46 | 171 | 0.0 | 0.0 | 0.03 | 0.13 | 0.04 | 92 | 1013.1 |
| 20260507022227 | 46 | 171 | 0.0 | 0.0 | 0.03 | 0.13 | 0.04 | 88 | 1013.0 |
| 20260507021727 | 46 | 171 | 0.0 | 0.0 | 0.02 | 0.13 | 0.03 | 88 | 1013.0 |
| 20260507021229 | 46 | 171 | 0.0 | 0.0 | 0.02 | 0.13 | 0.03 | 88 | 1013.0 |
| 20260507020713 | 46 | 171 | 0.0 | 0.0 | 0.02 | 0.13 | 0.03 | 88 | 1012.9 |
| 20260507020226 | 45 | 171 | 0.0 | 0.0 | 0.02 | 0.13 | 0.03 | 88 | 1013.0 |
| 20260507015715 | 45 | 171 | 0.0 | 0.0 | 0.02 | 0.12 | 0.02 | 88 | 1013.0 |
| 20260507015217 | 45 | 171 | 0.0 | 0.0 | 0.02 | 0.12 | 0.02 | 88 | 1012.9 |
| 20260507014716 | 45 | 171 | 0.0 | 0.0 | 0.01 | 0.11 | 0.02 | 88 | 1012.9 |
| 20260507014233 | 45 | 171 | 0.0 | 0.0 | 0.01 | 0.11 | 0.02 | 88 | 1012.9 |
| 20260507013727 | 45 | 171 | 0.0 | 0.0 | 0.01 | 0.11 | 0.02 | 88 | 1012.8 |
| 20260507013225 | 45 | 171 | 0.0 | 0.0 | 0.00 | 0.10 | 0.01 | 88 | 1012.8 |
| 20260507012724 | 45 | 171 | 0.0 | 0.0 | 0.00 | 0.10 | 0.01 | 88 | 1012.7 |
| 20260507012218 | 45 | 171 | 0.0 | 0.0 | 0.00 | 0.10 | 0.01 | 88 | 1012.6 |
| 20260507011723 | 45 | 171 | 0.0 | 0.0 | 0.00 | 0.10 | 0.01 | 88 | 1012.6 |
| 20260507011223 | 45 | 171 | 0.0 | 0.0 | 0.00 | 0.10 | 0.01 | 88 | 1012.6 |
| 20260507010716 | 45 | 171 | 0.0 | 0.0 | 0.00 | 0.10 | 0.01 | 88 | 1012.6 |
| 20260507010233 | 45 | 171 | 0.0 | 0.0 | 0.01 | 0.10 | 0.01 | 88 | 1012.6 |
| 20260507005724 | 45 | 171 | 0.0 | 0.0 | 0.01 | 0.10 | 0.01 | 88 | 1012.6 |
| 20260507005217 | 45 | 171 | 0.0 | 0.0 | 0.01 | 0.10 | 0.01 | 88 | 1012.6 |
| 20260507004733 | 44 | 171 | 0.0 | 0.0 | 0.01 | 0.10 | 0.01 | 88 | 1012.5 |
| 20260507004232 | 44 | 171 | 0.0 | 0.0 | 0.01 | 0.10 | 0.01 | 89 | 1012.5 |
| 20260507003730 | 44 | 171 | 0.0 | 0.0 | 0.01 | 0.10 | 0.01 | 88 | 1012.4 |
| 20260507003214 | 44 | 171 | 0.0 | 0.0 | 0.01 | 0.10 | 0.01 | 88 | 1012.5 |
| 20260507002719 | 44 | 171 | 0.0 | 0.0 | 0.01 | 0.10 | 0.01 | 89 | 1012.5 |
| 20260507002217 | 44 | 171 | 0.0 | 0.0 | 0.01 | 0.10 | 0.01 | 88 | 1012.4 |
| 20260507001716 | 43 | 171 | 0.0 | 0.0 | 0.01 | 0.10 | 0.01 | 89 | 1012.4 |
| 20260507001215 | 43 | 171 | 0.0 | 0.0 | 0.01 | 0.10 | 0.01 | 89 | 1012.5 |
| 20260507000728 | 43 | 171 | 0.0 | 0.0 | 0.01 | 0.10 | 0.01 | 89 | 1012.5 |
| 20260507000216 | 43 | 171 | 0.0 | 0.0 | 0.00 | 0.09 | 0.00 | 89 | 1012.5 |
| 20260506235727 | 43 | 171 | 0.0 | 0.0 | 0.00 | 0.09 | 0.00 | 89 | 1012.5 |
| 20260506235223 | 43 | 171 | 0.0 | 0.0 | 0.00 | 0.09 | 0.00 | 89 | 1012.5 |
| 20260506234721 | 43 | 171 | 0.0 | 0.0 | 0.00 | 0.09 | 0.00 | 89 | 1012.5 |
| 20260506234234 | 43 | 171 | 0.0 | 0.0 | 0.00 | 0.09 | 0.00 | 89 | 1012.5 |
| 20260506233728 | 43 | 171 | 0.0 | 0.0 | 0.00 | 0.09 | 0.00 | 89 | 1012.5 |
| 20260506233223 | 43 | 171 | 0.0 | 0.0 | 0.00 | 0.09 | 0.00 | 89 | 1012.5 |
| 20260506232721 | 43 | 171 | 0.0 | 0.0 | 0.00 | 0.09 | 0.00 | 89 | 1012.5 |
| 20260506232215 | 43 | 171 | 0.0 | 0.0 | 0.00 | 0.09 | 0.00 | 89 | 1012.4 |
| 20260506231731 | 43 | 171 | 0.0 | 0.0 | 0.00 | 0.09 | 0.00 | 89 | 1012.4 |
| 20260506231213 | 43 | 171 | 0.0 | 0.0 | 0.00 | 0.09 | 0.00 | 89 | 1012.3 |
| 20260506230713 | 43 | 171 | 0.0 | 0.0 | 0.00 | 0.09 | 0.00 | 89 | 1012.4 |
| 20260506230230 | 43 | 171 | 0.0 | 0.0 | 0.00 | 0.09 | 0.00 | 89 | 1012.4 |
| 20260506225723 | 43 | 171 | 0.0 | 0.0 | 0.00 | 0.09 | 0.00 | 89 | 1012.2 |
| 20260506225221 | 43 | 171 | 0.0 | 0.0 | 0.00 | 0.09 | 0.00 | 89 | 1012.2 |
| 20260506224721 | 43 | 171 | 0.0 | 0.0 | 0.00 | 0.09 | 0.00 | 89 | 1012.3 |
| 20260506224221 | 43 | 171 | 0.0 | 0.0 | 0.00 | 0.09 | 0.00 | 89 | 1012.3 |
| 20260506223719 | 43 | 171 | 0.0 | 0.0 | 0.00 | 0.09 | 0.00 | 89 | 1012.3 |
| 20260506223215 | 43 | 171 | 0.0 | 0.0 | 0.00 | 0.09 | 0.00 | 89 | 1012.3 |
| 20260506222730 | 44 | 171 | 0.0 | 0.0 | 0.00 | 0.09 | 0.00 | 89 | 1012.2 |
| 20260506222228 | 43 | 171 | 0.0 | 0.0 | 0.00 | 0.09 | 0.00 | 89 | 1012.2 |
| 20260506221723 | 44 | 171 | 0.0 | 0.0 | 0.00 | 0.09 | 0.00 | 89 | 1012.2 |
| 20260506221225 | 44 | 171 | 0.0 | 0.0 | 0.00 | 0.09 | 0.00 | 89 | 1012.1 |
| 20260506220726 | 44 | 171 | 0.0 | 0.0 | 0.00 | 0.09 | 0.00 | 89 | 1012.2 |
| 20260506220232 | 44 | 171 | 0.0 | 0.0 | 0.00 | 0.09 | 0.00 | 89 | 1012.2 |
| 20260506215727 | 44 | 171 | 0.0 | 0.0 | 0.00 | 0.09 | 0.09 | 89 | 1012.2 |
| 20260506215223 | 44 | 171 | 0.0 | 0.0 | 0.00 | 0.09 | 0.09 | 89 | 1012.2 |
| 20260506214728 | 44 | 171 | 0.0 | 0.0 | 0.00 | 0.09 | 0.09 | 89 | 1012.1 |
| 20260506214225 | 44 | 171 | 0.0 | 0.0 | 0.00 | 0.09 | 0.09 | 89 | 1012.1 |
| 20260506213721 | 45 | 171 | 0.0 | 0.0 | 0.00 | 0.09 | 0.09 | 89 | 1012.1 |
| 20260506213221 | 45 | 171 | 0.0 | 0.0 | 0.00 | 0.09 | 0.09 | 89 | 1012.1 |
| 20260506212723 | 45 | 171 | 0.0 | 0.0 | 0.00 | 0.09 | 0.09 | 89 | 1012.1 |
| 20260506212224 | 45 | 171 | 0.0 | 0.0 | 0.00 | 0.09 | 0.09 | 89 | 1012.0 |
| 20260506211719 | 45 | 171 | 0.0 | 0.0 | 0.00 | 0.09 | 0.09 | 89 | 1012.1 |
| 20260506211218 | 45 | 171 | 0.0 | 0.0 | 0.00 | 0.09 | 0.09 | 89 | 1012.0 |
| 20260506210716 | 45 | 171 | 0.0 | 0.0 | 0.00 | 0.09 | 0.09 | 89 | 1011.9 |
| 20260506210233 | 45 | 171 | 0.0 | 0.0 | 0.00 | 0.09 | 0.09 | 89 | 1011.8 |
| 20260506205730 | 45 | 171 | 0.0 | 0.0 | 0.00 | 0.09 | 0.09 | 89 | 1011.8 |
| 20260506205225 | 45 | 171 | 0.0 | 0.0 | 0.00 | 0.09 | 0.09 | 89 | 1011.7 |
| 20260506204727 | 45 | 171 | 0.0 | 0.0 | 0.00 | 0.09 | 0.09 | 89 | 1011.7 |
| 20260506204221 | 45 | 171 | 0.0 | 0.0 | 0.00 | 0.09 | 0.09 | 89 | 1011.8 |
| 20260506203723 | 45 | 171 | 0.0 | 0.0 | 0.00 | 0.09 | 0.09 | 89 | 1011.6 |
| 20260506203220 | 46 | 171 | 0.0 | 0.0 | 0.00 | 0.09 | 0.09 | 89 | 1011.7 |
| 20260506202718 | 46 | 171 | 0.0 | 0.0 | 0.00 | 0.09 | 0.09 | 89 | 1011.7 |
| 20260506202217 | 46 | 171 | 0.0 | 0.0 | 0.00 | 0.09 | 0.09 | 89 | 1011.5 |
| 20260506201733 | 46 | 171 | 0.0 | 0.0 | 0.00 | 0.09 | 0.09 | 89 | 1011.4 |
| 20260506201228 | 46 | 171 | 0.0 | 0.0 | 0.00 | 0.09 | 0.09 | 88 | 1011.3 |
| 20260506200728 | 46 | 171 | 0.0 | 0.0 | 0.00 | 0.09 | 0.09 | 88 | 1011.2 |
| 20260506200232 | 46 | 171 | 0.0 | 0.0 | 0.00 | 0.09 | 0.09 | 88 | 1011.2 |
| 20260506195729 | 47 | 171 | 0.0 | 0.0 | 0.00 | 0.09 | 0.09 | 88 | 1011.1 |
| 20260506195225 | 47 | 171 | 0.0 | 0.0 | 0.00 | 0.09 | 0.09 | 92 | 1011.1 |
| 20260506194724 | 47 | 171 | 0.0 | 0.0 | 0.00 | 0.09 | 0.09 | 88 | 1010.9 |
| 20260506194220 | 47 | 171 | 0.0 | 0.0 | 0.00 | 0.09 | 0.09 | 88 | 1010.9 |
| 20260506193714 | 47 | 171 | 0.0 | 0.0 | 0.00 | 0.09 | 0.09 | 88 | 1010.8 |
| 20260506193212 | 47 | 171 | 0.0 | 0.0 | 0.00 | 0.09 | 0.09 | 88 | 1010.8 |
| 20260506192712 | 48 | 171 | 0.0 | 0.0 | 0.00 | 0.09 | 0.09 | 87 | 1010.7 |
| 20260506192229 | 48 | 171 | 0.0 | 0.0 | 0.00 | 0.09 | 0.09 | 87 | 1010.7 |
| 20260506191729 | 48 | 171 | 0.0 | 0.0 | 0.00 | 0.09 | 0.09 | 87 | 1010.6 |
| 20260506191228 | 48 | 171 | 0.0 | 0.0 | 0.00 | 0.09 | 0.09 | 87 | 1010.6 |
| 20260506190728 | 49 | 171 | 0.0 | 0.0 | 0.00 | 0.09 | 0.09 | 86 | 1010.6 |
| 20260506190228 | 49 | 171 | 0.0 | 0.0 | 0.00 | 0.09 | 0.09 | 86 | 1010.6 |
| 20260506185723 | 49 | 171 | 0.0 | 0.0 | 0.00 | 0.09 | 0.09 | 86 | 1010.5 |
| 20260506185231 | 50 | 171 | 0.0 | 0.0 | 0.00 | 0.09 | 0.09 | 86 | 1010.4 |
| 20260506184712 | 50 | 172 | 0.0 | 0.0 | 0.00 | 0.09 | 0.09 | 86 | 1010.4 |
| 20260506184232 | 50 | 171 | 0.0 | 0.0 | 0.00 | 0.09 | 0.09 | 86 | 1010.4 |
| 20260506183727 | 50 | 171 | 0.0 | 0.0 | 0.00 | 0.09 | 0.09 | 85 | 1010.3 |
| 20260506183220 | 50 | 171 | 0.0 | 0.0 | 0.00 | 0.09 | 0.09 | 85 | 1010.2 |
| 20260506182717 | 51 | 171 | 0.0 | 0.0 | 0.00 | 0.09 | 0.09 | 85 | 1010.2 |
| 20260506182215 | 51 | 171 | 0.0 | 0.0 | 0.00 | 0.09 | 0.09 | 84 | 1010.1 |